Date String (YYYY-MM-DD hh:mm:ss) UTC,Instrument flags,absolute air pressure of the measurement (hPa),sample flow rate (lpm),inlet stack bypass flow (lpm),air temperature of the measurement (°C),ambient temperature measured by the external sensor (°C),aerosol sample conditioner tube jacket temperature (°C),OPC LED temperature (°C),internal box temperature (°C),relative humidity of the measurement (%),span deviation,mass concentration of particles derived from Lorenz-Mie calculation of OPC scattering (μg/m³),mass concentration of particles derived from Lorenz-Mie calculation of OPC scattering (μg/m³),mass concentration of particles derived from Lorenz-Mie calculation of OPC scattering (μg/m³)
DateTimeUTC,F1_M11,P_M11,Q1_M11,Q2_M11,T1_M11,T2_M11,T3_M11,T4_M11,T5_M11,U1_M11,ZSPAN_M11,X2_M11,X0_M11,X1_M11
2023-09-22 14:00:00,SystemResetWarning,0829.8,5.01,000.00,028.5,027.0,000.0,036.9,030.1,26.6,-001.4,0006.72,0013.19,0005.44
2023-09-22 14:01:00,SystemResetWarning,0829.8,5.00,000.00,028.5,027.0,000.0,036.9,030.1,26.8,-001.9,0006.83,0013.47,0005.50
2023-09-22 14:02:00,SystemResetWarning,0829.8,4.99,000.00,028.5,027.0,000.0,036.9,030.1,26.9,-001.5,0006.88,0013.66,0005.55
2023-09-22 14:03:00,SystemResetWarning,0829.8,5.00,000.00,028.5,027.0,000.0,036.9,030.1,27.0,-001.5,0006.91,0013.88,0005.55
2023-09-22 14:04:00,SystemResetWarning,0829.8,5.00,000.00,028.5,027.0,000.0,036.9,030.1,27.2,-000.7,0006.95,0014.19,0005.54
2023-09-22 14:05:00,SystemResetWarning,0829.8,5.01,000.00,028.5,027.0,000.0,036.9,030.1,27.2,-000.4,0006.89,0013.91,0005.56
2023-09-22 14:06:00,SystemResetWarning,0829.8,5.01,000.00,028.5,027.0,000.0,036.9,030.1,27.3,-000.8,0006.89,0013.52,0005.60
2023-09-22 14:07:00,SystemResetWarning,0829.8,5.00,000.00,028.5,027.0,000.0,036.9,030.1,27.0,-000.7,0006.94,0013.60,0005.64
2023-09-22 14:08:00,SystemResetWarning,0829.8,4.99,000.00,028.5,027.0,000.0,036.9,030.1,26.9,-000.7,0006.97,0014.17,0005.68
2023-09-22 14:09:00,SystemResetWarning,0829.8,5.00,000.00,028.5,027.0,000.0,036.9,030.1,27.1,-000.8,0007.02,0014.20,0005.73
2023-09-22 14:10:00,SystemResetWarning,0829.8,5.01,000.00,028.5,027.0,000.0,036.9,030.1,27.4,-000.7,0007.07,0013.92,0005.79
2023-09-22 14:11:00,SystemResetWarning,0829.8,4.99,000.00,028.5,027.0,000.0,036.9,030.1,27.5,-000.3,0007.07,0014.20,0005.81
2023-09-22 14:12:00,SystemResetWarning,0829.8,5.00,000.00,028.5,027.0,000.0,036.9,030.1,27.6,-000.7,0007.02,0014.28,0005.81
2023-09-22 14:13:00,SystemResetWarning,0829.8,4.99,000.00,028.5,027.0,000.0,036.9,030.2,27.7,-001.2,0007.03,0014.40,0005.81
2023-09-22 14:14:00,SystemResetWarning,0829.8,5.00,000.00,028.6,027.0,000.0,036.9,030.2,27.7,-001.3,0007.04,0014.80,0005.84
2023-09-22 14:15:00,SystemResetWarning,0829.8,5.01,000.00,028.6,027.0,000.0,036.9,030.2,27.9,-001.2,0007.03,0014.89,0005.85
2023-09-22 14:16:00,SystemResetWarning,0829.8,5.00,000.00,028.6,027.0,000.0,036.9,030.2,28.1,-001.1,0007.04,0015.26,0005.83
2023-09-22 14:17:00,SystemResetWarning,0829.8,5.00,000.00,028.6,027.1,000.0,036.9,030.2,28.4,-001.0,0007.02,0015.94,0005.80
2023-09-22 14:18:00,SystemResetWarning,0829.8,5.00,000.00,028.6,027.1,000.0,036.9,030.2,28.8,-001.2,0007.04,0017.71,0005.77
2023-09-22 14:19:00,SystemResetWarning,0829.8,5.00,000.00,028.6,027.1,000.0,036.9,030.2,30.1,-001.1,0007.00,0017.74,0005.75
2023-09-22 14:20:00,SystemResetWarning,0829.8,4.99,000.00,028.6,027.1,000.0,036.9,030.2,30.3,-001.3,0007.01,0017.63,0005.75
2023-09-22 14:21:00,SystemResetWarning,0829.7,5.01,000.00,028.6,027.1,000.0,036.9,030.3,30.5,-001.2,0006.97,0017.46,0005.72
2023-09-22 14:22:00,SystemResetWarning,0829.7,5.01,000.00,028.6,027.1,000.0,036.9,030.3,30.4,-001.2,0006.94,0016.75,0005.70
2023-09-22 14:23:00,SystemResetWarning,0829.7,5.01,000.00,028.6,027.1,000.0,036.9,030.3,30.4,-000.8,0006.92,0016.67,0005.67
2023-09-22 14:24:00,SystemResetWarning,0829.7,5.00,000.00,028.6,027.2,000.0,037.0,030.3,30.5,-000.9,0006.86,0016.59,0005.64
2023-09-22 14:25:00,SystemResetWarning,0829.7,4.99,000.00,028.6,027.2,000.0,037.0,030.3,30.2,-000.8,0006.84,0016.36,0005.59
2023-09-22 14:26:00,SystemResetWarning,0829.7,5.00,000.00,028.6,027.2,000.0,037.0,030.3,30.1,-000.3,0006.83,0015.91,0005.54
2023-09-22 14:27:00,SystemResetWarning,0829.7,5.00,000.00,028.7,027.2,000.0,037.0,030.3,30.4,-001.2,0006.76,0015.56,0005.50
2023-09-22 14:28:00,SystemResetWarning,0829.7,5.00,000.00,028.7,027.2,000.0,037.0,030.4,30.4,-001.4,0006.70,0015.04,0005.48
2023-09-22 14:29:00,SystemResetWarning,0829.7,5.00,000.00,028.7,027.2,000.0,037.0,030.4,30.3,-001.2,0006.61,0013.12,0005.45
2023-09-22 14:30:00,SystemResetWarning,0829.7,5.00,000.00,028.7,027.2,000.0,037.0,030.4,30.7,-001.5,0006.63,0012.44,0005.44
2023-09-22 14:31:00,SystemResetWarning,0829.7,5.01,000.00,028.7,027.3,000.0,037.0,030.4,30.6,-001.7,0006.62,0012.57,0005.43
2023-09-22 14:32:00,SystemResetWarning,0829.7,5.01,000.00,028.7,027.3,000.0,037.0,030.4,30.5,-001.6,0006.60,0012.88,0005.41
2023-09-22 14:33:00,SystemResetWarning,0829.7,5.00,000.00,028.7,027.3,000.0,037.0,030.4,30.5,-001.2,0006.57,0012.76,0005.37
2023-09-22 14:34:00,SystemResetWarning,0829.7,4.99,000.00,028.7,027.3,000.0,037.0,030.4,30.6,-000.5,0006.59,0013.15,0005.36
2023-09-22 14:35:00,SystemResetWarning,0829.7,4.99,000.00,028.8,027.3,000.0,037.0,030.4,30.6,0000.5,0006.59,0013.60,0005.36
2023-09-22 14:36:00,SystemResetWarning,0829.7,5.01,000.00,028.8,027.3,000.0,037.0,030.5,31.0,0001.6,0006.59,0014.14,0005.37
2023-09-22 14:37:00,SystemResetWarning,0829.7,5.01,000.00,028.8,027.3,000.0,037.0,030.5,31.3,0001.4,0006.56,0014.13,0005.39
2023-09-22 14:38:00,SystemResetWarning,0829.6,5.01,000.00,028.8,027.4,000.0,037.1,030.4,31.2,0001.5,0006.55,0014.37,0005.41
2023-09-22 14:39:00,SystemResetWarning,0829.6,5.00,000.00,028.8,027.4,000.0,037.1,030.4,30.8,0001.6,0006.59,0014.67,0005.43
2023-09-22 14:40:00,SystemResetWarning,0829.7,5.00,000.00,028.8,027.4,000.0,037.1,030.4,30.6,0001.6,0006.63,0015.07,0005.48
2023-09-22 14:41:00,SystemResetWarning,0829.7,5.00,000.00,028.8,027.4,000.0,037.1,030.4,30.3,0001.8,0006.61,0014.87,0005.50
2023-09-22 14:42:00,SystemResetWarning,0829.7,5.00,000.00,028.8,027.4,000.0,037.1,030.5,30.8,0002.1,0006.57,0014.53,0005.50
2023-09-22 14:43:00,SystemResetWarning,0829.7,5.01,000.00,028.8,027.4,000.0,037.1,030.5,31.2,0002.0,0006.51,0013.87,0005.49
2023-09-22 14:44:00,SystemResetWarning,0829.7,4.99,000.00,028.8,027.4,000.0,037.1,030.5,31.1,0001.5,0006.57,0014.29,0005.52
2023-09-22 14:45:00,SystemResetWarning,0829.7,4.99,000.00,028.8,027.4,000.0,037.1,030.5,31.0,0000.7,0006.58,0014.39,0005.55
2023-09-22 14:46:00,SystemResetWarning,0829.7,5.00,000.00,028.9,027.4,000.0,037.2,030.5,31.0,0000.3,0006.63,0014.13,0005.57
2023-09-22 14:47:00,SystemResetWarning,0829.7,5.00,000.00,028.9,027.4,000.0,037.2,030.5,30.9,0000.1,0006.68,0013.68,0005.61
2023-09-22 14:48:00,SystemResetWarning,0829.7,5.00,000.00,028.9,027.4,000.0,037.2,030.5,30.7,-000.0,0006.76,0013.96,0005.63
2023-09-22 14:49:00,SystemResetWarning,0829.7,5.00,000.00,028.9,027.4,000.0,037.2,030.6,30.8,-000.8,0006.81,0013.80,0005.65
2023-09-22 14:50:00,SystemResetWarning,0829.7,5.00,000.00,028.9,027.4,000.0,037.2,030.6,31.1,-000.6,0006.85,0013.68,0005.67
2023-09-22 14:51:00,SystemResetWarning,0829.7,5.00,000.00,028.9,027.5,000.0,037.2,030.6,31.0,-001.3,0006.89,0013.97,0005.70
2023-09-22 14:52:00,SystemResetWarning,0829.7,5.00,000.00,028.9,027.5,000.0,037.2,030.6,30.7,-001.9,0006.97,0014.60,0005.73
2023-09-22 14:53:00,SystemResetWarning,0829.7,5.00,000.00,028.9,027.5,000.0,037.2,030.5,30.5,-002.3,0007.04,0014.78,0005.76
2023-09-22 14:54:00,SystemResetWarning,0829.7,5.00,000.00,028.9,027.5,000.0,037.2,030.6,30.5,-002.0,0007.13,0014.96,0005.83
2023-09-22 14:55:00,SystemResetWarning,0829.7,5.00,000.00,028.9,027.5,000.0,037.2,030.6,30.8,-001.6,0007.25,0014.99,0005.96
2023-09-22 14:56:00,SystemResetWarning,0829.7,4.99,000.00,028.9,027.5,000.0,037.2,030.6,30.4,-001.7,0007.40,0015.38,0006.08
2023-09-22 14:57:00,SystemResetWarning,0829.7,5.00,000.00,028.9,027.5,000.0,037.3,030.6,30.8,-002.7,0007.55,0015.32,0006.21
2023-09-22 14:58:00,SystemResetWarning,0829.7,5.00,000.00,029.0,027.5,000.0,037.3,030.6,30.9,-002.7,0007.77,0015.43,0006.35
2023-09-22 14:59:00,SystemResetWarning,0829.7,5.00,000.00,029.0,027.6,000.0,037.3,030.7,31.0,-002.5,0007.92,0015.59,0006.51
